Content
SEND FEEDBACK

Daily
Averages
Monthly
Summary
Canada

MONTREAL, QUEBEC


Home > North America > Canada > Quebec
Elevation: 118 feet     Latitude: 45 28N     Longitude: 073 45W

WEATHER
 
SELECT A DAY
Number of Records: 200,724;   Date Range: 1/1/95 - 9/30/14
 
SHARE

PRINT THIS DATA

[ ← Previous Day ]
WEATHER ALMANAC - APRIL 7, 2014
[ Next Day → ]
[ °C ]   °F
Weather ElementAverageHighLow
Temperature44.9 °F55.4 °F (2:00 pm)32 °F (6:00 am)
Dewpoint26.1 °F30.2 °F (2:00 pm)21.2 °F (4:00 am)
Humidity47.8 %75 % (6:00 am)27 % (2:00 pm)
Barometer30.04 in30.16 in (6:00 am)29.83 in (11:00 pm)
Wind Speed8 mph16.1 mph (11:37 pm)
Wind Gust25.3 mph (11:37 pm)
Weather ElementAverage
Visibility16.9 mi
Wind DirectionSE (134.1 °)

Weather ElementTotal
Precipitation---
Heating Degree Days21.3 (Base 65)
Averaged from 29 records on April 7, 2014
WEATHER CONDITIONS BREAKOUT
WIND DIRECTION BREAKOUT
WEATHER BY HOUR - APRIL 7, 2014
[ °C ]   °F
Local TimeTemperatureDewpointHumidityBarometerVisibilityWind DirectionWind SpeedGust SpeedPrecipitationEventsConditions
12:48 AM35.6 °F24.8 °F65 %30.15 in15.0 miWSW (250°)10.4 mphClear
1:00 AM37.4 °F24.8 °F60 %30.15 in15.0 miWSW (250°)9.2 mphClear
2:00 AM36.0 °F22.0 °F45 %30.15 in15.0 miWSW (250°)3.5 mphClear
2:00 AM35.6 °F23.0 °F60 %30.15 in15.0 miWSW (250°)2.3 mphPartly Cloudy
3:00 AM35.6 °F23.0 °F60 %30.15 in15.0 miWSW (240°)5.8 mphPartly Cloudy
4:00 AM33.8 °F21.2 °F60 %30.15 in15.0 miSW (220°)2.3 mphClear
5:00 AM33.8 °F21.2 °F60 %30.14 in15.0 miSouth (180°)2.3 mphClear
6:00 AM32.0 °F24.8 °F75 %30.16 in15.0 miSE (140°)4.6 mphMostly Cloudy
7:00 AM32.0 °F23.0 °F69 %30.15 in30.0 miCalmMostly Cloudy
8:00 AM37.0 °F26.0 °F54 %30.15 in28.0 miNNE (30°)2.3 mphClear
8:00 AM37.4 °F26.6 °F65 %30.14 in30.0 miNNE (30°)2.3 mphMostly Cloudy
9:00 AM42.8 °F24.8 °F49 %30.15 in15.0 miCalmMostly Cloudy
10:00 AM46.4 °F26.6 °F46 %30.14 in12.0 miVariable2.3 mphOvercast
11:00 AM50.0 °F23.0 °F35 %30.11 in15.0 miENE (70°)5.8 mphOvercast
12:00 PM50.0 °F26.6 °F40 %30.09 in15.0 miEast (100°)8.1 mphOvercast
1:00 PM51.8 °F28.4 °F41 %30.07 in15.0 miSE (130°)10.4 mphOvercast
2:00 PM54.0 °F29.0 °F27 %30.04 in15.0 miSE (130°)9.2 mphOvercast
2:00 PM55.4 °F30.2 °F38 %30.04 in15.0 miSE (130°)9.2 mphOvercast
3:00 PM55.4 °F30.2 °F38 %30.01 in15.0 miESE (120°)9.2 mphOvercast
4:00 PM55.4 °F30.2 °F38 %29.97 in15.0 miESE (110°)9.2 mphOvercast
5:00 PM55.4 °F26.6 °F33 %29.95 in30.0 miSSE (150°)12.7 mphOvercast
6:00 PM53.6 °F24.8 °F33 %29.94 in15.0 miSE (140°)15.0 mphOvercast
7:00 PM51.8 °F28.4 °F41 %29.92 in15.0 miSE (140°)15.0 mphOvercast
8:00 PM50.0 °F27.0 °F28 %29.91 in15.0 miSE (140°)13.8 mphOvercast
8:00 PM50.0 °F26.6 °F40 %29.91 in15.0 miSE (140°)15.0 mphOvercast
9:00 PM50.0 °F28.4 °F43 %29.88 in15.0 miSE (140°)12.7 mphOvercast
10:00 PM48.2 °F28.4 °F46 %29.85 in15.0 miESE (120°)9.2 mphOvercast
11:00 PM48.2 °F26.6 °F43 %29.83 in15.0 miSE (130°)12.7 mphOvercast
11:37 PM46.4 °F30.2 °F53 %29.83 in15.0 miSSE (160°)16.1 mph25.3 mphRainLight Rain Showers
Hourly data recorded from CYUL, located miles away from Montreal, Quebec







STORIES FROM OUR PARTNERS